Terug naar catalogus

THOR AGENA B DEB

ActiefLEO
NORAD 1948·DEBRIS·🇺🇸 United States

Gelanceerd Nov 29, 1965 vanaf Vandenberg Space Force Base

Loading…

Volgende Passages (komende 24 uur)

TLE

VersSource: Space-Track

Epoch: Sep 14, 2026, 04:45 UTC

1 01948U 65098F   26257.19814794  .00007171  00000-0  12805-2 0  9999
2 01948  79.8467 182.7323 0748778  29.1898 334.9002 13.61921965821284

Volg THOR AGENA B DEB in realtime met AllMySat

Download on the App Store